[[{"header":{"parameterUnit":"m.s-1","parameterCategory":1,"la1":30.2991,"la2":30.254,"lo1":-89.0895,"lo2":-89.0444,"dy":0.0017,"dx":0.0017,"nx":28,"ny":28,"refTime":"2024-05-11T03:00:00:Z","depth":0,"parameterNumber":2,"parameterNumberName":"U-component_of_WINDS"},"data":[0,0,0,0,0,0,0,0,0,0,0,0,0,0,0,0,0,0,0,0,0,0,0,0,0,0,0,0,0,0,0,0,0,0,0,0,0,0,0,0,0,0,0,0,0,0,0,0,0,0,0,0,0,0,0,0,0,0,-1.6021,-1.6021,0,-1.6084,-1.6085,-1.6086,-1.6073,-1.6072,-1.607,-1.6069,-1.6135,-1.6138,-1.6141,0,0,0,0,0,0,0,0,0,0,0,0,0,-1.5886,-1.5889,-1.602,-1.6021,-1.6022,-1.6084,-1.6085,-1.6086,-1.6073,-1.6071,-1.607,-1.6069,-1.6135,-1.6138,-1.6141,0,0,0,0,0,0,0,0,0,0,0,0,0,-1.5947,-1.589,-1.602,-1.6023,-1.6024,-1.6084,-1.6085,-1.6086,-1.6073,-1.6071,-1.607,-1.6068,-1.6133,-1.6138,-1.6142,-1.6204,0,0,-1.6155,-1.6157,0,0,0,0,0,0,0,0,-1.5943,-1.5952,-1.6022,-1.6023,-1.6024,-1.6069,-1.6062,-1.6126,-1.6074,-1.6055,-1.6069,-1.6067,-1.6115,-1.612,-1.6136,-1.6207,-1.621,-1.6155,-1.6158,-1.616,-1.6161,0,0,0,0,0,0,0,-1.5939,-1.5949,-1.6046,-1.6023,-1.6024,-1.6021,-1.6027,-1.6074,-1.6094,-1.6056,-1.6055,-1.6063,-1.6115,-1.6132,-1.6138,-1.6211,-1.6155,-1.6159,-1.6162,-1.6163,-1.6334,-1.6335,0,0,0,0,0,0,-1.5934,-1.5946,-1.6044,-1.6048,-1.5979,-1.6025,-1.6032,-1.6056,-1.6093,-1.6097,-1.6064,-1.6062,-1.6126,-1.6133,-1.614,-1.6215,-1.616,-1.6164,-1.6166,-1.6332,-1.6334,-1.6336,0,0,0,0,0,0,-1.5931,-1.5943,-1.6041,-1.5996,-1.6009,-1.6029,-1.6056,-1.6058,-1.6076,-1.61,-1.6103,-1.6078,-1.6125,-1.6134,-1.6188,-1.6217,-1.6166,-1.617,-1.6329,-1.6332,-1.6335,-1.6364,0,0,0,0,0,0,-1.5928,-1.5942,-1.5966,-1.5997,-1.6011,-1.6088,-1.6058,-1.6061,-1.6083,-1.6081,-1.6114,-1.6117,-1.6124,-1.6181,-1.6192,-1.6222,-1.6173,-1.6327,-1.6331,-1.6334,-1.6361,-1.6368,-1.6374,0,0,0,0,0,-1.5923,-1.5972,-1.5967,-1.5979,-1.6042,-1.609,-1.6098,-1.6104,-1.6085,-1.611,-1.6124,-1.6116,-1.6211,-1.6187,-1.6199,-1.623,-1.6325,-1.633,-1.6334,-1.6358,-1.6366,-1.6373,0,0,0,0,0,0,-1.5945,-1.5976,-1.5971,-1.6032,-1.6058,-1.6087,-1.6118,-1.6113,-1.6145,-1.6142,-1.6148,-1.6156,-1.621,-1.6225,-1.6197,-1.6291,-1.6266,-1.6273,-1.628,-1.6288,-1.6294,-1.629,-1.6177,0,0,0,0,0,-1.5957,-1.5993,-1.6019,-1.607,-1.6083,-1.6098,-1.612,-1.6122,-1.6149,-1.616,-1.6179,-1.6206,-1.6242,-1.6266,-1.63,-1.6362,-1.6369,-1.6389,-1.6396,-1.6401,-1.6407,-1.6441,-1.645,-1.635,-1.635,-1.635,0,0,-1.5982,-1.6003,-1.6026,-1.6075,-1.6095,-1.6133,-1.6108,-1.6149,-1.6176,-1.6167,-1.6218,-1.6233,-1.6263,-1.6321,-1.6348,-1.6336,-1.6436,-1.6407,-1.6411,-1.6414,-1.6446,-1.6455,-1.6464,-1.6353,-1.6353,-1.6352,0,0,-1.6047,-1.6067,-1.6112,-1.6132,-1.6163,-1.6172,-1.6183,-1.6212,-1.6222,-1.6273,-1.6267,-1.6299,-1.6361,-1.6383,-1.6402,-1.6473,-1.6466,-1.6483,-1.6518,-1.655,-1.6558,-1.6565,-1.659,-1.6599,-1.6489,-1.6489,-1.649,0,-1.6075,-1.6131,-1.6135,-1.6176,-1.6198,-1.6189,-1.6234,-1.6254,-1.6295,-1.6309,-1.6295,-1.6371,-1.6391,-1.6454,-1.6471,-1.6486,-1.6498,-1.648,-1.6556,-1.6563,-1.657,-1.6594,-1.6604,-1.6491,-1.6491,-1.6491,-1.6491,0,-1.6163,-1.6202,-1.6234,-1.6273,-1.6297,-1.634,-1.6351,-1.6375,-1.6375,-1.6386,-1.6438,-1.6461,-1.6499,-1.6514,-1.6514,-1.6576,-1.6568,-1.6555,-1.6529,-1.6581,-1.6604,-1.6613,-1.6494,-1.6493,-1.6493,-1.6492,0,0,-1.6246,-1.6285,-1.6297,-1.6314,-1.6346,-1.6376,-1.6418,-1.6455,-1.6476,-1.6503,-1.6538,-1.659,-1.6577,-1.6599,-1.6601,-1.663,-1.6684,-1.6613,-1.6614,-1.6626,-1.6753,-1.6763,-1.6774,-1.6679,-1.6681,-1.6682,-1.675,0,-1.6314,-1.6388,-1.6392,-1.6459,-1.6495,-1.6486,-1.6523,-1.6546,-1.6557,-1.6588,-1.66,-1.6636,-1.6617,-1.663,-1.6658,-1.6672,-1.671,-1.6666,-1.6712,-1.6714,-1.6706,-1.6785,-1.6797,-1.686,-1.6759,-1.6761,-1.6762,0,-1.6404,-1.6434,-1.6504,-1.653,-1.6545,-1.6578,-1.6611,-1.6642,-1.6668,-1.6673,-1.6696,-1.6694,-1.6737,-1.6708,-1.6767,-1.6737,-1.6756,-1.6765,-1.6768,-1.6773,-1.6742,-1.6793,-1.688,-1.689,-1.6776,-1.6775,-1.6774,0,-1.6458,-1.6515,-1.6564,-1.6579,-1.6611,-1.6634,-1.6648,-1.6672,-1.6694,-1.6723,-1.6736,-1.677,-1.6789,-1.6815,-1.6821,-1.68,-1.6879,-1.6852,-1.6885,-1.6885,-1.6903,-1.6902,-1.6995,-1.6914,-1.6914,-1.6914,-1.6914,0,-1.6534,-1.6577,-1.6589,-1.6619,-1.6667,-1.6671,-1.6718,-1.6731,-1.6752,-1.6784,-1.6779,-1.6809,-1.6816,-1.6848,-1.6853,-1.69,-1.6909,-1.6914,-1.6915,-1.6915,-1.6915,-1.6928,-1.6924,-1.6916,-1.6916,-1.6915,-1.6915,0,-1.6603,-1.6612,-1.6665,-1.669,-1.6697,-1.6731,-1.6753,-1.6781,-1.679,-1.6831,-1.6841,-1.6856,-1.6892,-1.6901,-1.6945,-1.6949,-1.7004,-1.7001,-1.6996,-1.6996,-1.7029,-1.7025,-1.7134,-1.7148,-1.7057,-1.7058,-1.7059,0,-1.6651,-1.6684,-1.6712,-1.6733,-1.6748,-1.6782,-1.6804,-1.6808,-1.6831,-1.6862,-1.6887,-1.6923,-1.6952,-1.7011,-1.7025,-1.7058,-1.7056,-1.7092,-1.7061,-1.706,-1.7057,-1.7055,-1.7058,-1.7098,-1.7099,-1.71,-1.71,0,-1.6736,-1.6739,-1.677,-1.6802,-1.6828,-1.6854,-1.6878,-1.6896,-1.6903,-1.6929,-1.6966,-1.6988,-1.7032,-1.7068,-1.7101,-1.7115,-1.7109,-1.7109,-1.7119,-1.712,-1.7115,-1.7118,-1.7012,-1.7107,-1.7107,-1.7106,-1.7106,-1.7105,-1.6797,-1.6825,-1.6849,-1.6884,-1.6902,-1.6925,-1.6953,-1.6965,-1.6996,-1.7032,-1.7032,-1.7073,-1.7096,-1.714,-1.7156,-1.7187,-1.7176,-1.719,-1.7194,-1.7197,-1.72,-1.7109,-1.7193,-1.7193,-1.7193,-1.7193,-1.7192,0,-1.6882,-1.6896,-1.6928,-1.6962,-1.6989,-1.6979,-1.7005,-1.7029,-1.7064,-1.7086,-1.7115,-1.7157,-1.719,-1.7207,-1.724,-1.7262,-1.726,-1.7271,-1.7269,-1.7273,-1.7208,-1.7196,-1.7272,-1.7272,-1.7272,-1.7272,-1.7272,-1.7272,-1.6929,-1.6977,-1.6982,-1.7038,-1.7052,-1.7091,-1.7107,-1.7128,-1.7145,-1.7192,-1.722,-1.723,-1.725,-1.7284,-1.7315,-1.7318,-1.7331,-1.7344,-1.7346,-1.7285,-1.7277,-1.727,-1.7259,-1.7346,-1.7346,-1.7408,-1.7409,-1.7409]},{"header":{"parameterUnit":"m.s-1","parameterCategory":1,"la1":30.2991,"la2":30.254,"lo1":-89.0895,"lo2":-89.0444,"dy":0.0017,"dx":0.0017,"nx":28,"ny":28,"refTime":"2024-05-11T03:00:00:Z","depth":0,"parameterNumber":3,"parameterNumberName":"V-component_of_WINDS"},"data":[0,0,0,0,0,0,0,0,0,0,0,0,0,0,0,0,0,0,0,0,0,0,0,0,0,0,0,0,0,0,0,0,0,0,0,0,0,0,0,0,0,0,0,0,0,0,0,0,0,0,0,0,0,0,0,0,0,0,-5.4909,-5.491,0,-5.5011,-5.5012,-5.5013,-5.4954,-5.4951,-5.4948,-5.4946,-5.5044,-5.505,-5.5055,0,0,0,0,0,0,0,0,0,0,0,0,0,-5.4657,-5.4662,-5.4909,-5.491,-5.4911,-5.5011,-5.5012,-5.5013,-5.4955,-5.4951,-5.4948,-5.4944,-5.5043,-5.5049,-5.5055,0,0,0,0,0,0,0,0,0,0,0,0,0,-5.4763,-5.4664,-5.4908,-5.4894,-5.4894,-5.501,-5.5012,-5.5014,-5.4955,-5.4951,-5.4947,-5.4943,-5.5041,-5.5048,-5.5056,-5.5191,0,0,-5.508,-5.5084,0,0,0,0,0,0,0,0,-5.4757,-5.4773,-5.4895,-5.4895,-5.4895,-5.4965,-5.4959,-5.5073,-5.4957,-5.4932,-5.4946,-5.4941,-5.5021,-5.5031,-5.5059,-5.5195,-5.52,-5.5081,-5.5086,-5.5089,-5.5092,0,0,0,0,0,0,0,-5.475,-5.4768,-5.4949,-5.4897,-5.4897,-5.4881,-5.4891,-5.4981,-5.4999,-5.4934,-5.493,-5.4943,-5.502,-5.5051,-5.5061,-5.5201,-5.5081,-5.5088,-5.5093,-5.5096,-5.5452,-5.5456,0,0,0,0,0,0,-5.4745,-5.4762,-5.4946,-5.4952,-5.4815,-5.4889,-5.49,-5.4947,-5.4998,-5.5002,-5.4946,-5.494,-5.504,-5.5052,-5.5064,-5.5225,-5.5089,-5.5097,-5.5101,-5.5447,-5.5453,-5.5458,0,0,0,0,0,0,-5.4739,-5.4762,-5.4941,-5.4856,-5.4878,-5.4898,-5.4951,-5.4951,-5.4982,-5.5008,-5.501,-5.4975,-5.5037,-5.5053,-5.516,-5.5227,-5.51,-5.5107,-5.5442,-5.5449,-5.5455,-5.5547,0,0,0,0,0,0,-5.4733,-5.476,-5.4813,-5.4858,-5.4883,-5.5038,-5.4955,-5.4956,-5.4997,-5.4989,-5.5035,-5.5039,-5.5035,-5.5148,-5.5168,-5.5236,-5.5114,-5.5436,-5.5445,-5.5453,-5.5538,-5.5556,-5.5572,0,0,0,0,0,-5.4724,-5.4834,-5.4816,-5.4838,-5.4949,-5.5042,-5.5056,-5.5051,-5.5003,-5.5055,-5.5071,-5.5037,-5.5217,-5.516,-5.5181,-5.5253,-5.5431,-5.5442,-5.5453,-5.5531,-5.5553,-5.5572,0,0,0,0,0,0,-5.4794,-5.4839,-5.482,-5.4948,-5.4992,-5.5032,-5.5098,-5.5075,-5.5132,-5.5122,-5.5111,-5.5122,-5.5234,-5.5253,-5.5189,-5.5385,-5.5316,-5.5332,-5.5368,-5.539,-5.5406,-5.5399,-5.512,0,0,0,0,0,-5.4825,-5.4898,-5.4933,-5.5042,-5.5065,-5.5078,-5.5118,-5.5111,-5.5155,-5.5172,-5.5196,-5.5239,-5.5304,-5.5348,-5.541,-5.5541,-5.5549,-5.56,-5.5617,-5.5631,-5.5644,-5.5714,-5.5737,-5.5493,-5.5493,-5.5492,0,0,-5.4888,-5.4922,-5.4969,-5.5057,-5.509,-5.5165,-5.5094,-5.5175,-5.523,-5.5184,-5.5287,-5.5306,-5.5352,-5.5472,-5.5526,-5.5492,-5.5713,-5.5644,-5.5655,-5.5661,-5.5727,-5.575,-5.5771,-5.55,-5.5499,-5.5497,0,0,-5.5042,-5.5076,-5.5171,-5.5206,-5.5257,-5.5265,-5.5288,-5.5331,-5.5343,-5.5447,-5.5414,-5.5477,-5.5591,-5.5625,-5.5658,-5.5825,-5.5795,-5.5845,-5.5933,-5.6002,-5.6021,-5.6038,-5.6097,-5.6118,-5.5858,-5.5858,-5.5858,0,-5.5114,-5.5227,-5.5222,-5.5307,-5.5346,-5.5309,-5.5404,-5.5438,-5.5506,-5.5533,-5.5495,-5.5637,-5.5665,-5.5792,-5.5833,-5.5861,-5.5885,-5.584,-5.6019,-5.6036,-5.6051,-5.6108,-5.613,-5.5864,-5.5863,-5.5863,-5.5862,0,-5.5313,-5.5392,-5.5462,-5.5531,-5.5578,-5.5667,-5.5673,-5.5721,-5.571,-5.5721,-5.5826,-5.5859,-5.5927,-5.5956,-5.5945,-5.6082,-5.6059,-5.602,-5.5951,-5.6081,-5.6133,-5.6155,-5.5872,-5.587,-5.5868,-5.5867,0,0,-5.5515,-5.558,-5.5606,-5.5637,-5.5691,-5.575,-5.5837,-5.5906,-5.5947,-5.5994,-5.6066,-5.6163,-5.6128,-5.6164,-5.6156,-5.6216,-5.6346,-5.617,-5.617,-5.6201,-5.6498,-5.6527,-5.6552,-5.6327,-5.6331,-5.6334,-5.6494,0,-5.5672,-5.5827,-5.5824,-5.5966,-5.6038,-5.6004,-5.6079,-5.612,-5.6132,-5.6193,-5.6206,-5.6275,-5.6223,-5.6245,-5.6303,-5.6318,-5.6405,-5.6306,-5.6392,-5.6395,-5.6382,-5.658,-5.6611,-5.676,-5.6514,-5.6518,-5.652,0,-5.5877,-5.5934,-5.6084,-5.6128,-5.6157,-5.6226,-5.6288,-5.6347,-5.6391,-5.6396,-5.6438,-5.642,-5.6506,-5.6435,-5.6552,-5.6485,-5.652,-5.6532,-5.6538,-5.6546,-5.6466,-5.6593,-5.6807,-5.683,-5.6553,-5.655,-5.6548,0,-5.6009,-5.6123,-5.6227,-5.6255,-5.6308,-5.6357,-5.6381,-5.6421,-5.6462,-5.6515,-5.6542,-5.6604,-5.6638,-5.6685,-5.6684,-5.6632,-5.6803,-5.6732,-5.6808,-5.6809,-5.6846,-5.6844,-5.707,-5.6868,-5.6868,-5.6868,-5.6867,0,-5.6185,-5.6278,-5.6287,-5.6352,-5.6455,-5.6449,-5.6551,-5.6569,-5.6606,-5.6671,-5.6645,-5.6707,-5.6702,-5.6764,-5.6763,-5.686,-5.6875,-5.6881,-5.6879,-5.6883,-5.6883,-5.6906,-5.6895,-5.6874,-5.6872,-5.6871,-5.687,0,-5.635,-5.636,-5.6472,-5.6513,-5.6526,-5.66,-5.6634,-5.6694,-5.6705,-5.6788,-5.6807,-5.6823,-5.6895,-5.6898,-5.698,-5.6979,-5.7098,-5.7085,-5.7084,-5.7081,-5.7158,-5.7151,-5.7407,-5.744,-5.7217,-5.7219,-5.7221,0,-5.6462,-5.6533,-5.6583,-5.6626,-5.6654,-5.6723,-5.6766,-5.6763,-5.6807,-5.6863,-5.6916,-5.6986,-5.7041,-5.7157,-5.7174,-5.7236,-5.7225,-5.731,-5.7234,-5.7235,-5.7226,-5.7222,-5.7228,-5.7325,-5.7327,-5.7329,-5.7331,0,-5.6659,-5.6661,-5.6724,-5.679,-5.6841,-5.6892,-5.6939,-5.6975,-5.6977,-5.7029,-5.7103,-5.7146,-5.723,-5.7299,-5.736,-5.7382,-5.7357,-5.7355,-5.7376,-5.7381,-5.7377,-5.738,-5.7124,-5.7349,-5.7347,-5.7346,-5.7345,-5.7344,-5.6801,-5.6863,-5.6908,-5.6979,-5.7014,-5.7059,-5.7117,-5.7136,-5.7198,-5.7268,-5.7262,-5.7344,-5.7384,-5.7464,-5.7491,-5.7554,-5.7524,-5.7555,-5.7562,-5.757,-5.7578,-5.7368,-5.7565,-5.7564,-5.7564,-5.7563,-5.7563,0,-5.6997,-5.7024,-5.709,-5.7158,-5.7213,-5.7186,-5.7237,-5.7285,-5.7358,-5.7399,-5.7455,-5.7539,-5.7606,-5.7629,-5.7693,-5.7739,-5.7729,-5.7756,-5.7752,-5.7758,-5.7601,-5.7577,-5.7763,-5.7763,-5.7763,-5.7763,-5.7763,-5.7763,-5.7106,-5.7209,-5.7216,-5.7335,-5.7361,-5.7443,-5.7474,-5.7514,-5.7547,-5.7644,-5.77,-5.7715,-5.7748,-5.7815,-5.7874,-5.7879,-5.7903,-5.7936,-5.7935,-5.7789,-5.7769,-5.7749,-5.7726,-5.7941,-5.7941,-5.8087,-5.8088,-5.8089]}]]